STARLINK-30388, 57784

Orbit data source: Space-Track

STARLINK-30388, 57784 is a payload satellite owned by SpaceX/Seattle (US) in LEO that was launched on Mon, 04 Sep 2023 UTC via an FALCON 9 launch vehicle from the Air Force Eastern Test Range (AFETR). Payload-class satellites include a variety of spacecraft equipped with specific instruments for various scientific and technological missions. These include communications satellites like Starlink; space stations such as the ISS; scientific satellites like the Hubble; Earth observation satellites from companies like Planet Labs, Umbra, and HawkEye 360; GPS; miniature CubeSats for education and research; and military/defense satellites.

Loading next visibility...
Identifier
57784, 2023-134P
Orbit
LEO
Country
Flag of USUS
Related business
Manufacturer
SpaceX/Seattle
Mission
Operational Commercial Communications
Bus & Motor
STARLINK V2M, Unknown motor
Mass
730 kg wet, ~700 kg dry
Launch date (UTC)
2023-09-04 (2 years ago)
Launch vehicle
FALCON 9
Launch site
Air Force Eastern Test Range (AFETR)
Object type
Payload
Rocket body
Debris
Shape & HBR
Box + 2 Pan, 17.7 m
Radar Cross Section
33.884 m², Large (>1 m²)

Expand to show TLE details & history
Last TLE update: 10 hours ago

TLE from 10 hours ago
0 STARLINK-30388
1 57784U 23134P   25346.94791409 -.00001009  00000-0 -59588-4 0  9998
2 57784  43.0059 308.7865 0002143 260.1681  99.8920 15.02526988126423
Epoch: 2025-12-12T22:44Z
TLE epoch observation values (Epoch: 2025-12-12T22:44:59.777Z)
Latitude
0.00002°
Longitude
-114.34477°
Altitude
559.141 km
Speed
7.584 km/s
True Right ascension
20h 35m 08s
True Declination
0° 00' 00"
Sunlit
Object was in daylight at epoch
Visualization orbit readout
Latitude
Unknown
Longitude
Unknown
Altitude
Unknown
Speed
Unknown
Apparent Right ascension
Unknown
Apparent Declination
Unknown
Sunlit
N/A
Visualization observer readout
Local Sidereal Time
07:32:42
Azimuth
Unknown
Elevation
Unknown
Doppler factor
Unknown
Orbital elements
Apogee altitude
562.517 km
Perigee altitude
559.543 km
Semi-major axis
6,939.167 km
Eccentricity
0.00021
Inclination
43.0059°
RAAN
308.7865°
Arg. of periapsis
260.1681°
True anomaly
99.91619°
Mean anomaly
99.892°
Eccentric anomaly
99.9041°
Mean motion
3.75476 °/min
Orbital period
95.88 mins
BSTAR
-0.000059588
Loading maneuver chart data...
Computing Atmospheric mass density...
Loading historical data...
Loading historical data...
Loading historical data...
Loading historical data...
Loading historical data...
Loading historical data...
Loading historical data...

Documentation

Showing up to 5 results
|